Lebanon, NH

11:59 PM EDT on April 24, 2018 (GMT -0400)
Lebanon Municipal

Weather History for KLEB - March, 2014

Change the Weather History Date:

Saturday, March 22, 2014

  Actual Average Record
Temperature  
Mean Temperature 28 °F -  
Max Temperature 44 °F 42 °F 84 °F (2012)
Min Temperature 14 °F 23 °F -2 °F (1939)
Degree Days  
Heating Degree Days 36    
Moisture  
Dew Point 20 °F    
Average Humidity 69    
Maximum Humidity 84    
Minimum Humidity 45    
Precipitation  
Precipitation 0.01 in - - ()
Sea Level Pressure  
Sea Level Pressure 29.84 in    
Wind  
Wind Speed 4 mph (SW)    
Max Wind Speed 15 mph    
Max Gust Speed 23 mph    
Visibility 9 miles    
Events Snow    
Averages and records for this station are not official NWS values.
T = Trace of Precipitation, MM = Missing Value Source: NWS Daily Summary

Daily Weather History Graph

Daily Weather History Graph

Search for Another Location

Airport or City:

Astronomy

Mar. 22, 2014 Rise Set
Actual Time 6:48 AM EDT 7:03 PM EDT
Civil Twilight 6:20 AM EDT 7:32 PM EDT
Nautical Twilight 5:46 AM EDT 8:06 PM EDT
Astronomical Twilight 5:12 AM EDT 8:40 PM EDT
Moon 12:29 AM EDT (3/22) 10:20 AM EDT (3/22)
Length of Visible Light 13h 12m
Length of Day
12h 15m
Waning Gibbous, 65% of the Moon is Illuminated
Mar 22
Waning Gibbous
Mar 23
Last Quarter
Mar 30
New
Apr 7
First Quarter
Apr 15
Full

Hourly Weather History & Observations

Time (EDT) Temp. Windchill Dew Point Humidity Pressure Visibility Wind Dir Wind Speed Gust Speed Precip Events Conditions
12:53 AM 19.0 °F - 12.9 °F 77% 30.02 in 10.0 mi Calm Calm - N/A   Clear
1:53 AM 15.1 °F - 10.0 °F 80% 30.04 in 10.0 mi Calm Calm - N/A   Clear
2:53 AM 15.1 °F - 10.0 °F 80% 30.04 in 10.0 mi Calm Calm - N/A   Clear
3:53 AM 14.0 °F 6.5 °F 10.0 °F 84% 30.00 in 10.0 mi NE 4.6 mph - N/A   Clear
4:53 AM 15.1 °F - 10.9 °F 84% 29.99 in 10.0 mi Calm Calm - N/A   Clear
5:53 AM 16.0 °F - 10.9 °F 81% 29.96 in 10.0 mi Calm Calm - N/A   Clear
6:53 AM 17.1 °F 8.7 °F 12.0 °F 81% 29.96 in 10.0 mi NE 5.8 mph - N/A   Mostly Cloudy
7:53 AM 21.0 °F - 15.1 °F 78% 29.92 in 10.0 mi Calm Calm - N/A   Overcast
8:53 AM 24.1 °F 19.7 °F 17.1 °F 75% 29.88 in 10.0 mi North 3.5 mph - N/A   Overcast
9:53 AM 27.0 °F 21.6 °F 17.1 °F 66% 29.81 in 10.0 mi West 4.6 mph - N/A   Overcast
10:53 AM 30.9 °F 27.5 °F 19.0 °F 61% 29.77 in 10.0 mi WSW 3.5 mph - N/A   Overcast
11:53 AM 33.1 °F 25.5 °F 19.9 °F 59% 29.75 in 9.0 mi SSW 9.2 mph - N/A   Overcast
12:01 PM 33.1 °F 24.9 °F 21.0 °F 61% 29.71 in 2.5 mi South 10.4 mph 19.6 mph 0.00 in Snow Light Snow
12:06 PM 32.0 °F 24.2 °F 23.0 °F 69% 29.71 in 0.8 mi South 9.2 mph 19.6 mph 0.00 in Snow Light Snow
12:16 PM 30.9 °F 22.2 °F 25.0 °F 79% 29.70 in 0.8 mi South 10.4 mph - 0.01 in Snow Light Snow
12:32 PM 30.9 °F 27.5 °F 26.1 °F 82% 29.70 in 1.2 mi SSE 3.5 mph - 0.01 in Snow Light Snow
12:39 PM 30.9 °F 25.2 °F 26.1 °F 82% 29.70 in 3.0 mi SSE 5.8 mph - 0.01 in Snow Light Snow
12:53 PM 32.0 °F 26.4 °F 25.0 °F 75% 29.73 in 10.0 mi South 5.8 mph - 0.01 in   Overcast
1:01 PM 32.0 °F 26.4 °F 25.0 °F 75% 29.68 in 10.0 mi South 5.8 mph - N/A   Overcast
1:53 PM 35.1 °F 26.4 °F 27.0 °F 72% 29.68 in 10.0 mi South 12.7 mph 19.6 mph N/A   Overcast
2:53 PM 36.0 °F 30.3 °F 28.0 °F 73% 29.67 in 10.0 mi South 6.9 mph - N/A   Overcast
3:53 PM 42.1 °F 34.9 °F 27.0 °F 55% 29.69 in 10.0 mi West 13.8 mph 23.0 mph N/A   Overcast
4:53 PM 43.0 °F 36.0 °F 23.0 °F 45% 29.74 in 10.0 mi West 13.8 mph 23.0 mph N/A   Overcast
5:53 PM 41.0 °F 33.1 °F 21.9 °F 47% 29.80 in 10.0 mi NW 15.0 mph 23.0 mph N/A   Overcast
6:53 PM 39.0 °F 32.3 °F 21.9 °F 50% 29.85 in 10.0 mi NW 10.4 mph - N/A   Scattered Clouds
7:53 PM 37.9 °F 32.7 °F 21.0 °F 51% 29.89 in 10.0 mi NW 6.9 mph - N/A   Overcast
8:53 PM 36.0 °F 29.0 °F 21.9 °F 57% 29.92 in 10.0 mi West 9.2 mph - N/A   Partly Cloudy
9:53 PM 34.0 °F 29.8 °F 21.9 °F 61% 29.94 in 10.0 mi SW 4.6 mph - N/A   Partly Cloudy
10:53 PM 28.9 °F 20.4 °F 21.0 °F 72% 29.94 in 10.0 mi South 9.2 mph - N/A   Clear
11:53 PM 28.9 °F 21.9 °F 19.9 °F 69% 29.93 in 10.0 mi SSE 6.9 mph - N/A   Clear